sat.trackr.live / text

‹ back to catalog

STARLINK-32634

NORAD 62313 · 2024-239N

PAYLOAD ACTIVE UNKNOWN

§ Identity

Operator
Country
US
Launch date
2024-12-13
Launch site
AFWTR
Launch vehicle
Mass (kg)
RCS (m²)

Purposes: comms

External: N2YO · Heavens-Above · Gunter

§ Orbital elements

Epoch: 2026-05-24T19:50:09.680352Z

Period
94.11 min
Inclination
53.1584°
Eccentricity
0.0001162
Mean motion
15.30199064 rev/d
Perigee alt
474.4 km
Apogee alt
476.0 km
Semi-major
6,853.4 km
B*
3.6001e-4
RAAN
187.2883°
Arg perigee
88.7836°
Mean anomaly
271.3298°
Rev number
8,122

§ Raw data

STARLINK-326341 62313U 24239N   26144.82650093  .00010318  00000+0  36001-3 0  99902 62313  53.1584 187.2883 0001162  88.7836 271.3298 15.30199064 81223

JSON: /api/v1/satellites/62313 · /tle

For live sub-satellite position, see the globe view (requires WebGL).

§ Visibility from observer

Set your observer location to see the next 7 days of passes ≥ 10°. The values pass through the URL so the page stays shareable.

No JS? Fill the form by hand. The geolocation button needs JavaScript.